This demonstration page uses our WeatherBlox Daily Observations layout. Learn more.

38.88101, -77.10428

Hourly Observations for March 28, 2018

Temp ( °F °C ) Dew Point ( °F °C ) Humidity (%) Winds ( mph kmh ) Pressure ( in mb ) Visibility ( mi km ) Precip ( " mm )
12:52 am 00:52 Cloudy with Light Rain 43 6.1 38 3.3 82 82 S 8 13 30.2 1023 10 16.0934 0 0.0254
1:15 am 01:15 Cloudy 43 6.1 38 3.3 82 82 SSW 9 15 30.18 1022 10 16.0934 0 0.0254
1:27 am 01:27 Cloudy 43 6.1 38 3.3 82 82 SSW 9 15 30.18 1022 10 16.0934 0 0.0254
1:52 am 01:52 Cloudy 43 6.1 38 3.3 82 82 SSW 8 13 30.17 1022 10 16.0934 0 0.0254
2:52 am 02:52 Cloudy 43 6.1 38 3.3 82 82 S 8 13 30.14 1021 10 16.0934 0 0
3:52 am 03:52 Cloudy 43 6.1 38 3.3 82 82 S 7 11 30.11 1020 10 16.0934 0 0
4:00 am 04:00 Cloudy with Light Rain 43 6.1 38 3.3 82 82 S 7 11 30.12 1020 9 14.48406 0 0.0254
4:24 am 04:24 Cloudy with Light Rain 43 6.1 39 3.9 86 86 SSW 7 11 30.12 1020 10 16.0934 0.01 0.254
4:42 am 04:42 Cloudy with Light Rain 43 6.1 38 3.3 82 82 S 7 11 30.09 1019 10 16.0934 0.01 0.254
4:52 am 04:52 Cloudy with Light Rain 43 6.1 39 3.9 86 86 S 7 11 30.09 1019 10 16.0934 0.01 0.254
5:28 am 05:28 Cloudy with Light Rain 43 6.1 39 3.9 86 86 SSW 6 9 30.09 1019 10 16.0934 0 0.0254
5:52 am 05:52 Cloudy with Light Rain 43 6.1 39 3.9 86 86 S 5 7 30.08 1019 10 16.0934 0 0.0254
6:52 am 06:52 Cloudy 44 6.7 39 3.9 83 83 S 5 7 30.09 1019 10 16.0934 0 0.0254
7:18 am 07:18 Cloudy with Light Rain 44 6.7 39 3.9 83 83 SSW 5 7 30.09 1019 9 14.48406 0 0.0254
7:52 am 07:52 Cloudy 44 6.7 39 3.9 83 83 S 3 6 30.08 1019 10 16.0934 0 0.0254
8:07 am 08:07 Cloudy 44 6.7 39 3.9 83 83 S 5 7 30.09 1019 10 16.0934 0 0
8:52 am 08:52 Cloudy 45 7.2 40 4.4 83 83 S 5 7 30.08 1019 10 16.0934 0 0
9:20 am 09:20 Cloudy 46 7.8 40 4.4 79 79 SSE 3 6 30.09 1019 10 16.0934 0 0
9:52 am 09:52 Mostly Cloudy 47 8.3 41 5 80 80 SE 5 7 30.06 1018 10 16.0934 0 0
9:54 am 09:54 Mostly Cloudy 47 8.3 41 5 80 80 SSE 5 7 30.06 1018 10 16.0934 0 0
10:52 am 10:52 Mostly Cloudy 48 8.9 41 5 77 77 SE 5 7 30.09 1019 10 16.0934 0 0
11:52 am 11:52 Cloudy 51 10.6 42 5.6 71 71 S 3 6 30.07 1018 10 16.0934 0 0
12:52 pm 12:52 Cloudy 54 12.2 42 5.6 64 64 SE 3 6 30.04 1017 10 16.0934 0 0
1:52 pm 13:52 Cloudy 55 12.8 42 5.6 62 62 S 3 6 30.04 1017 10 16.0934 0 0
2:52 pm 14:52 Cloudy with Light Rain 57 13.9 44 6.7 62 62 VRB 3 6 30.01 1016 10 16.0934 0 0.0254
3:52 pm 15:52 Cloudy 58 14.4 45 7.2 62 62 S 7 11 30.01 1016 10 16.0934 0 0.0254
4:52 pm 16:52 Cloudy with Light Rain 57 13.9 48 8.9 72 72 SW 5 7 30.01 1016 10 16.0934 0.01 0.254
5:52 pm 17:52 Cloudy with Light Rain 56 13.3 49 9.4 77 77 Calm 30.01 1016 10 16.0934 0.03 0.762
6:52 pm 18:52 Cloudy with Light Rain 52 11.1 48 8.9 86 86 ENE 8 13 30.01 1016 8 12.87472 0.03 0.762
7:52 pm 19:52 Cloudy 51 10.6 47 8.3 86 86 ENE 5 7 30.02 1017 10 16.0934 0.01 0.254
8:52 pm 20:52 Cloudy 50 10 46 7.8 86 86 NE 5 7 30.03 1017 10 16.0934 0 0.0254
9:52 pm 21:52 Cloudy 50 10 45 7.2 83 83 Calm 30.05 1018 10 16.0934 0 0.0254
10:52 pm 22:52 Cloudy with Light Rain 50 10 46 7.8 86 86 ESE 3 6 30.04 1017 10 16.0934 0.01 0.254
11:52 pm 23:52 Cloudy 50 10 46 7.8 86 86 N 5 7 30.03 1017 9 14.48406 0 0.0254

Powered by AerisWeather